Skip Page Navigation
NASA JPL Caltech
NASA Logo - Jet Propulsion Laboratory + View the NASA Portal
+ Center for Near-Earth Object Studies
JPL Home Earth Solar System Stars & Galaxies Technology
JPL Solar System Dynamics
BODIES ORBITS EPHEMERIDES TOOLS PHYSICAL DATA DISCOVERY FAQ SITE MAP
JPL Small-Body Database Browser
Search: [ help ]  
393346 (4329 P-L)
Classification: Main-belt Asteroid          SPK-ID: 2393346
Ephemeris | Orbit Diagram | Orbital Elements | Mission Design | Physical Parameters | Discovery Circumstances | Close-Approach Data ]

[ show orbit diagram ]
Orbital Elements at Epoch 2459000.5 (2020-May-31.0) TDB
Reference: JPL 13 (heliocentric ecliptic J2000)
 Element Value Uncertainty (1-sigma)   Units 
e .2036272423008663 8.9781e-08  
a 2.276028791182407 1.5615e-08 au
q 1.812567325036559 1.9972e-07 au
i 1.2660244575016 7.0975e-06 deg
node 327.8005132473932 0.00025014 deg
peri 53.14467150435557 0.00025093 deg
M 125.6843655997988 1.6514e-05 deg
tp 2458562.631391883987
(2019-Mar-20.13139188)
5.5872e-05 TDB
period 1254.194968240482
3.43
1.2907e-05
3.534e-08
d
yr
n .2870367120871537 2.9539e-09 deg/d
Q 2.739490257328255 1.8795e-08 au
  Orbit Determination Parameters
   # obs. used (total)      189  
   data-arc span      21692 days (59.39 yr)  
   first obs. used      1960-09-24  
   last obs. used      2020-02-14  
   planetary ephem.      DE431  
   SB-pert. ephem.      SB431-N16  
   condition code      0  
   norm. resid. RMS      .57677  
   source      ORB  
   producer      Otto Matic  
   solution date      2020-Nov-12 16:17:52  

Additional Information
 Earth MOID = .815613 au 
 Jupiter MOID = 2.723 au 
 T_jup = 3.581 
[ show covariance matrix ]

Ephemeris | Orbit Diagram | Orbital Elements | Mission Design | Physical Parameters | Discovery Circumstances | Close-Approach Data ]

Physical Parameter Table
Parameter Symbol Value Units Sigma Reference Notes
absolute magnitude H 18.1   n/a MPO494992  

393346 (4329 P-L)          Discovered 1960-Sep-24 by van Houten, C. J., van Houten-Groeneveld, I., Gehrels, T. at Palomar
Reference: Last Updated: 2014-04-17

[ show close-approach data ]
Alternate Designations
 4329 P-L = 2008 QZ35 
Ephemeris | Orbit Diagram | Orbital Elements | Mission Design | Physical Parameters | Discovery Circumstances | Close-Approach Data ]
ABOUT SSD CREDITS/AWARDS PRIVACY/COPYRIGHT GLOSSARY LINKS
FirstGov 2020-Nov-23 17:04 UT
(server date/time)  
NASA Home Page
Site Manager:   Ryan S. Park
Webmaster  Alan B. Chamberlin